When you browse on this site, cookies collect data to enhance your experience and personalize the content and advertising you see.
Visit our Privacy Policy to learn more. By continuing to use the site, you agree to this use of cookies and data.
  • In Schweiz
  • Länderverzeichnis
  • Für 7 Tage
  • Wassertemperatur
  • Satellitenkarten
  • Wetterkarte
  • Widgets
  • user-avatar
    Anmelden

    Stündliche Wetter Bischkek

    Heute, 17 Juni, Montag

    Zeit Temperatur Niederschläge Wind Luftdruck Luftfeuchtigkeit
    00:00 -4°C° 0 mm 4 m/S 486 mmHg 76%
    01:00 -4°C° 0 mm 4 m/S 486 mmHg 74%
    02:00 -4°C° 0 mm 4 m/S 486 mmHg 71%
    03:00 -4°C° 0 mm 3 m/S 486 mmHg 72%
    04:00 -4°C° 0 mm 3 m/S 485 mmHg 73%
    05:00 -4°C° 0 mm 3 m/S 485 mmHg 74%
    06:00 -2°C° 0 mm 3 m/S 487 mmHg 70%
    07:00 0°C° 0 mm 3 m/S 488 mmHg 67%
    08:00 +3°C° 0 mm 2 m/S 489 mmHg 63%
    09:00 +4°C° 0 mm 2 m/S 490 mmHg 61%
    10:00 +4°C° 0 mm 2 m/S 490 mmHg 58%
    11:00 +5°C° 0 mm 2 m/S 490 mmHg 56%
    12:00 +6°C° 0.2 mm 2 m/S 490 mmHg 55%
    13:00 +6°C° 0.2 mm 2 m/S 490 mmHg 54%
    14:00 +6°C° 0.2 mm 2 m/S 490 mmHg 53%
    15:00 +6°C° 0.3 mm 2 m/S 490 mmHg 57%
    16:00 +5°C° 0.3 mm 2 m/S 490 mmHg 60%
    17:00 +5°C° 0.3 mm 2 m/S 490 mmHg 64%
    18:00 +3°C° 0.1 mm 2 m/S 489 mmHg 70%
    19:00 +3°C° 0.1 mm 1 m/S 487 mmHg 75%
    20:00 +1°C° 0.1 mm 1 m/S 486 mmHg 81%
    21:00 +1°C° 0 mm 1 m/S 486 mmHg 79%
    22:00 -2°C° 0 mm 2 m/S 486 mmHg 78%
    23:00 -2°C° 0 mm 3 m/S 486 mmHg 76%

    Morgen, 18 Juni, Dienstag

    Zeit Temperatur Niederschläge Wind Luftdruck Luftfeuchtigkeit
    00:00 -2°C° 0 mm 3 m/S 486 mmHg 75%
    01:00 -2°C° 0 mm 3 m/S 485 mmHg 73%
    02:00 -4°C° 0 mm 3 m/S 485 mmHg 72%
    03:00 -4°C° 0 mm 3 m/S 485 mmHg 73%
    04:00 -4°C° 0 mm 3 m/S 485 mmHg 74%
    05:00 -4°C° 0 mm 3 m/S 485 mmHg 75%
    06:00 -1°C° 0 mm 2 m/S 486 mmHg 68%
    07:00 +2°C° 0 mm 2 m/S 488 mmHg 62%
    08:00 +4°C° 0 mm 2 m/S 489 mmHg 55%
    09:00 +5°C° 0 mm 2 m/S 489 mmHg 51%
    10:00 +6°C° 0 mm 2 m/S 490 mmHg 47%
    11:00 +7°C° 0 mm 2 m/S 490 mmHg 43%
    12:00 +7°C° 0.3 mm 2 m/S 490 mmHg 45%
    13:00 +7°C° 0.3 mm 3 m/S 490 mmHg 46%
    14:00 +7°C° 0.3 mm 3 m/S 490 mmHg 48%
    15:00 +5°C° 0.5 mm 3 m/S 489 mmHg 54%
    16:00 +4°C° 0.5 mm 4 m/S 489 mmHg 61%
    17:00 +3°C° 0.5 mm 4 m/S 488 mmHg 67%
    18:00 +2°C° 0.1 mm 3 m/S 487 mmHg 71%
    19:00 +2°C° 0.1 mm 2 m/S 487 mmHg 75%
    20:00 +1°C° 0.1 mm 1 m/S 487 mmHg 79%
    21:00 +1°C° 0.1 mm 1 m/S 486 mmHg 79%
    22:00 -1°C° 0.1 mm 2 m/S 486 mmHg 79%
    23:00 -2°C° 0.1 mm 2 m/S 486 mmHg 79%

    übermorgen, 19 Juni, Mittwoch

    Zeit Temperatur Niederschläge Wind Luftdruck Luftfeuchtigkeit
    00:00 -2°C° 0 mm 2 m/S 486 mmHg 78%
    01:00 -2°C° 0 mm 2 m/S 486 mmHg 76%
    02:00 -2°C° 0 mm 2 m/S 485 mmHg 74%
    03:00 -2°C° 0 mm 2 m/S 485 mmHg 74%
    04:00 -2°C° 0 mm 2 m/S 485 mmHg 74%
    05:00 -2°C° 0 mm 2 m/S 485 mmHg 75%
    06:00 +1°C° 0.1 mm 2 m/S 486 mmHg 70%
    07:00 +2°C° 0.1 mm 2 m/S 488 mmHg 65%
    08:00 +5°C° 0.1 mm 1 m/S 489 mmHg 60%
    09:00 +4°C° 0.6 mm 2 m/S 489 mmHg 60%
    10:00 +4°C° 0.6 mm 2 m/S 489 mmHg 60%
    11:00 +5°C° 0.6 mm 2 m/S 489 mmHg 60%
    12:00 +4°C° 1.6 mm 2 m/S 488 mmHg 67%
    13:00 +2°C° 1.6 mm 3 m/S 487 mmHg 74%
    14:00 -1°C° 1.6 mm 4 m/S 486 mmHg 82%
    15:00 0°C° 1.1 mm 3 m/S 486 mmHg 81%
    16:00 0°C° 1.1 mm 3 m/S 487 mmHg 81%
    17:00 0°C° 1.1 mm 3 m/S 487 mmHg 81%
    18:00 +1°C° 0.3 mm 2 m/S 487 mmHg 80%
    19:00 -1°C° 0.3 mm 2 m/S 487 mmHg 80%
    20:00 -2°C° 0.3 mm 2 m/S 487 mmHg 80%
    21:00 -2°C° 0 mm 2 m/S 486 mmHg 79%
    22:00 -3°C° 0 mm 2 m/S 486 mmHg 79%
    23:00 -4°C° 0 mm 2 m/S 485 mmHg 78%

    20 Juni, Donnerstag

    Zeit Temperatur Niederschläge Wind Luftdruck Luftfeuchtigkeit
    00:00 -5°C° 0 mm 3 m/S 485 mmHg 77%
    01:00 -5°C° 0 mm 3 m/S 485 mmHg 75%
    02:00 -5°C° 0 mm 3 m/S 485 mmHg 73%
    03:00 -4°C° 0 mm 3 m/S 485 mmHg 73%
    04:00 -4°C° 0 mm 3 m/S 485 mmHg 73%
    05:00 -4°C° 0 mm 3 m/S 486 mmHg 73%
    06:00 -1°C° 0 mm 2 m/S 487 mmHg 68%
    07:00 +2°C° 0 mm 2 m/S 488 mmHg 63%
    08:00 +5°C° 0 mm 1 m/S 490 mmHg 59%
    09:00 +5°C° 0.1 mm 2 m/S 490 mmHg 54%
    10:00 +6°C° 0.1 mm 2 m/S 490 mmHg 50%
    11:00 +7°C° 0.1 mm 2 m/S 491 mmHg 45%
    12:00 +7°C° 0.3 mm 2 m/S 491 mmHg 46%
    13:00 +7°C° 0.3 mm 2 m/S 491 mmHg 48%
    14:00 +8°C° 0.3 mm 2 m/S 491 mmHg 49%
    15:00 +7°C° 0.5 mm 2 m/S 491 mmHg 53%
    16:00 +7°C° 0.5 mm 2 m/S 490 mmHg 57%
    17:00 +5°C° 0.5 mm 3 m/S 490 mmHg 60%
    18:00 +5°C° 0.1 mm 2 m/S 489 mmHg 65%
    19:00 +3°C° 0.1 mm 2 m/S 488 mmHg 70%
    20:00 +2°C° 0.1 mm 1 m/S 487 mmHg 75%
    21:00 +1°C° 0 mm 2 m/S 487 mmHg 74%
    22:00 -1°C° 0 mm 2 m/S 487 mmHg 73%
    23:00 -1°C° 0 mm 3 m/S 486 mmHg 72%

    21 Juni, Freitag

    Zeit Temperatur Niederschläge Wind Luftdruck Luftfeuchtigkeit
    00:00 -1°C° 0 mm 3 m/S 486 mmHg 71%
    01:00 -1°C° 0 mm 3 m/S 486 mmHg 71%
    02:00 -2°C° 0 mm 4 m/S 486 mmHg 71%
    03:00 -2°C° 0 mm 4 m/S 486 mmHg 70%
    04:00 -1°C° 0 mm 3 m/S 486 mmHg 69%
    05:00 -1°C° 0 mm 3 m/S 486 mmHg 69%
    06:00 +1°C° 0 mm 3 m/S 488 mmHg 62%
    07:00 +4°C° 0 mm 2 m/S 489 mmHg 55%
    08:00 +7°C° 0 mm 1 m/S 491 mmHg 48%
    09:00 +8°C° 0.1 mm 1 m/S 491 mmHg 45%
    10:00 +9°C° 0.1 mm 1 m/S 491 mmHg 43%
    11:00 +9°C° 0.1 mm 2 m/S 492 mmHg 40%
    12:00 +9°C° 0.3 mm 2 m/S 492 mmHg 40%
    13:00 +10°C° 0.3 mm 2 m/S 492 mmHg 40%
    14:00 +10°C° 0.3 mm 2 m/S 492 mmHg 40%
    15:00 +9°C° 0.4 mm 2 m/S 491 mmHg 44%
    16:00 +9°C° 0.4 mm 2 m/S 491 mmHg 48%
    17:00 +8°C° 0.4 mm 3 m/S 491 mmHg 52%
    18:00 +6°C° 0.4 mm 2 m/S 489 mmHg 58%
    19:00 +5°C° 0.4 mm 2 m/S 488 mmHg 63%
    20:00 +4°C° 0.4 mm 1 m/S 487 mmHg 69%
    21:00 +3°C° 0.1 mm 2 m/S 487 mmHg 69%
    22:00 +2°C° 0.1 mm 2 m/S 487 mmHg 69%
    23:00 +1°C° 0.1 mm 3 m/S 487 mmHg 69%

    22 Juni, Samstag

    Zeit Temperatur Niederschläge Wind Luftdruck Luftfeuchtigkeit
    00:00 +1°C° 0 mm 3 m/S 486 mmHg 67%
    01:00 0°C° 0 mm 4 m/S 486 mmHg 66%
    02:00 0°C° 0 mm 4 m/S 486 mmHg 65%
    03:00 0°C° 0 mm 4 m/S 486 mmHg 64%
    04:00 0°C° 0 mm 4 m/S 486 mmHg 63%
    05:00 +1°C° 0 mm 3 m/S 486 mmHg 63%
    06:00 +3°C° 0 mm 3 m/S 488 mmHg 58%
    07:00 +4°C° 0 mm 3 m/S 489 mmHg 54%
    08:00 +7°C° 0 mm 3 m/S 490 mmHg 49%
    09:00 +7°C° 0.1 mm 3 m/S 490 mmHg 52%
    10:00 +7°C° 0.1 mm 3 m/S 490 mmHg 54%
    11:00 +7°C° 0.1 mm 3 m/S 490 mmHg 56%
    12:00 +5°C° 0.5 mm 3 m/S 490 mmHg 60%
    13:00 +5°C° 0.5 mm 3 m/S 490 mmHg 63%
    14:00 +5°C° 0.5 mm 4 m/S 490 mmHg 67%
    15:00 +4°C° 0.9 mm 3 m/S 489 mmHg 71%
    16:00 +3°C° 0.9 mm 3 m/S 489 mmHg 75%
    17:00 +2°C° 0.9 mm 3 m/S 489 mmHg 79%
    18:00 +3°C° 1 mm 2 m/S 488 mmHg 80%
    19:00 +2°C° 1 mm 2 m/S 488 mmHg 81%
    20:00 +3°C° 1 mm 1 m/S 488 mmHg 81%
    21:00 +1°C° 0.6 mm 2 m/S 488 mmHg 81%
    22:00 0°C° 0.6 mm 3 m/S 488 mmHg 81%
    23:00 -1°C° 0.6 mm 3 m/S 488 mmHg 81%
    Mehr zeigen